Header for Extended Forecast Station List Page

Search by: ID | Name | Date | Parm | Value | Avg | % Avg
Sort by: ID | Name | Date | Parm | Value | Avg | % Avg

Enter search or view all records.

Click on id for station plot
#IDNameDateParmValueAvg% Avg
0HWRI1BIG LOST-AT HOWELL RANCH NEAR CHILLY06-27-2022DISCHARGE (KAF)7452141
1MACI1BIG LOST-MACKAY RESERVOIR NEAR MACKAY06-27-2022INFLOW (KAF)8558146
2HALI1BIG WOOD-AT HAILEY06-27-2022DISCHARGE (KAF)7464116
3MAGI1BIG WOOD-MAGIC DAM06-27-2022INFLOW (KAF)3232101
4BITM8BITTERROOT-NEAR MISSOULA06-27-2022DISCHARGE (KAF)379302126
5BONM8BLACKFOOT-NEAR BONNER06-27-2022DISCHARGE (KAF)301212142
6BIGI1BOISE-AT GLENWOOD BRIDGE06-27-2022DISCHARGE (KAF)195190103
7LUCI1BOISE-LUCKY PEAK DAM06-27-2022INFLOW (KAF)570543105
8PARI1BOISE-NEAR PARMA06-27-2022DISCHARGE (KAF)220193114
9HOTI1BRUNEAU-NEAR HOT SPRINGS06-27-2022DISCHARGE (KAF)242597
10BULO3BULLY CREEK-BULLY CREEK DAM06-27-2022INFLOW (KAF)MMM
11BUDW1BUMPING-BUMPING LAKE DAM06-27-2022INFLOW (KAF)3726141
12CHDW1CHELAN-LAKE CHELAN DAM06-27-2022INFLOW (KAF)811344236
13ABOM8CLARK FORK-ABOVE MISSOULA06-27-2022DISCHARGE (KAF)520438119
14DLGM8CLARK FORK-AT DEER LODGE06-27-2022DISCHARGE (KAF)4337118
15SRGM8CLARK FORK-AT ST REGIS06-27-2022DISCHARGE (KAF)1159989117
16BELM8CLARK FORK-BELOW MISSOULA06-27-2022DISCHARGE (KAF)900760118
17CABI1CLARK FORK-CABINET GORGE DAM06-27-2022INFLOW (KAF)49793635137
18NOXM8CLARK FORK-NOXON RAPIDS DAM06-27-2022INFLOW (KAF)45183300137
19DRMM8CLARK FORK-NR DRUMMOND06-27-2022DISCHARGE (KAF)10510897
20CLUW1CLE ELUM-CLE ELUM LAKE06-27-2022INFLOW (KAF)20197207
21ORFI1CLEARWATER-AT OROFINO06-27-2022DISCHARGE (KAF)1008692146
22SPDI1CLEARWATER-AT SPALDING06-27-2022DISCHARGE (KAF)29462289129
23COEI1COEUR D ALENE-COEUR D ALENE LAKE06-27-2022INFLOW (KAF)410253162
24CIBW1COLUMBIA-AT INTL BOUNDARY06-27-2022DISCHARGE (KAF)2889123159125
25BONO3COLUMBIA-BONNEVILLE DAM06-27-2022INFLOW (KAF)4281133355128
26CHJW1COLUMBIA-CHIEF JOSEPH DAM06-27-2022INFLOW (KAF)2893522195130
27GCDW1COLUMBIA-GRAND COULEE DAM06-27-2022INFLOW (KAF)3008822064136
28JDAO3COLUMBIA-JOHN DAY DAM06-27-2022INFLOW (KAF)4171831903131
29MCDW1COLUMBIA-MCNARY DAM06-27-2022INFLOW (KAF)4117332130128
30PRWW1COLUMBIA-PRIEST RAPIDS DAM06-27-2022INFLOW (KAF)3216624068134
31RRHW1COLUMBIA-ROCKY REACH DAM06-27-2022INFLOW (KAF)3101823643131
32TDAO3COLUMBIA-THE DALLES DAM06-27-2022INFLOW (KAF)4221432357130
33WANW1COLUMBIA-WANAPUM DAM06-27-2022INFLOW (KAF)3214523956134
34WELW1COLUMBIA-WELLS DAM06-27-2022INFLOW (KAF)3019122987131
35DEDI1DEADWOOD-NEAR LOWMAN06-27-2022INFLOW (KAF)232692
36MODO3DESCHUTES-AT MOODY NR BIGGS06-27-2022DISCHARGE (KAF)1069108998
37ARDW1ENTIAT-NEAR ARDENVOIR06-27-2022DISCHARGE (KAF)9155164
38CHEI1FALL RIVER-NEAR CHESTER06-27-2022DISCHARGE (KAF)6310162
39CFMM8FLATHEAD-AT COLUMBIA FALLS06-27-2022DISCHARGE (KAF)23621584149
40KERM8FLATHEAD-SELI’Š KSANKA QLISPE’ DAM06-27-2022INFLOW (KAF)27131880144
41TRYO3GRANDE RONDE-TROY06-27-2022DISCHARGE (KAF)399245163
42REXI1HENRYS FORK-AT REXBURG06-27-2022DISCHARGE (KAF)29430298
43ANTI1HENRYS FORK-AT ST. ANTHONY06-27-2022DISCHARGE (KAF)25630385
44IPDI1HENRYS FORK-ISLAND PARK DAM06-27-2022INFLOW (KAF)11813488
45HODO3HOOD-NEAR TUCKER BRIDGE06-27-2022DISCHARGE (KAF)10090112
46SERO3JOHN DAY-AT SERVICE CK06-27-2022DISCHARGE (KAF)10461172
47KADW1KACHESS-KACHESS DAM06-27-2022INFLOW (KAF)3822168
48LAUW1KETTLE-AT LAURIER06-27-2022DISCHARGE (KAF)395247160
49PITW1KLICKITAT-NEAR PITT06-27-2022DISCHARGE (KAF)238201118
50BFEI1KOOTENAI-AT BONNERS FERRY06-27-2022STAGE (FT)MMM
51LEOI1KOOTENAI-AT LEONIA06-27-2022DISCHARGE (KAF)27862415115
52LYDM8KOOTENAI-LIBBY DAM06-27-2022INFLOW (KAF)33672312146
53LWRI1LITTLE WOOD-LITTLE WOOD DAM06-27-2022INFLOW (KAF)131493
54BERO3MALHEUR-AGENCY VALLEY DAM06-27-2022INFLOW (KAF)71261
55WRMO3MALHEUR-WARM SPRINGS DAM06-27-2022INFLOW (KAF)85163
56MYKO3MCKAY CREEK-NEAR PILOT ROCK06-27-2022DISCHARGE (KAF)811115
57PATW1METHOW-NEAR PATEROS06-27-2022DISCHARGE (KAF)375199189
58WGCM8MF FLATHEAD-NEAR WEST GLACIER06-27-2022DISCHARGE (KAF)716380188
59CLFW1NACHES-NEAR CLIFFDEL06-27-2022DISCHARGE (KAF)133102130
60NACW1NACHES-NEAR NACHES06-27-2022DISCHARGE (KAF)19522487
61DWRI1NF CLEARWATER-DWORSHAK DAM06-27-2022INFLOW (KAF)592390152
62FCFM8NF FLATHEAD-NEAR COLUMBIA FALLS06-27-2022DISCHARGE (KAF)741430172
63MONO3NF JOHN DAY-AT MONUMENT06-27-2022DISCHARGE (KAF)9639244
64CSDI1NF PAYETTE-CASCADE DAM06-27-2022INFLOW (KAF)7666114
65TONW1OKANOGAN-NEAR TONASKET06-27-2022DISCHARGE (KAF)822415198
66OWYO3OWYHEE-OWYHEE DAM06-27-2022INFLOW (KAF)486278
67EMMI1PAYETTE-NEAR EMMETT06-27-2022DISCHARGE (KAF)448352127
68ALFW1PEND OREILLE-ALBENI FALLS DAM06-27-2022INFLOW (KAF)51873658142
69HOPI1PEND OREILLE-PEND OREILLE LAKE NR HOPE06-27-2022LAKE ELEVATION (FT)MMM
70PIHI1PORTNEUF-AT POCATELLO06-27-2022DISCHARGE (KAF)131869
71PRTI1PRIEST-NEAR PRIEST RIVER06-27-2022DISCHARGE (KAF)255172148
72RCCM8ROCK CREEK-NEAR CLINTON06-27-2022DISCHARGE (KAF)9288105
73WHBI1SALMON-AT WHITEBIRD06-27-2022DISCHARGE (KAF)18451510122
74ARAI1SF BOISE-ANDERSON RANCH DAM06-27-2022INFLOW (KAF)758589
75HHWM8SF FLATHEAD-HUNGRY HORSE DAM06-27-2022INFLOW (KAF)579367158
76PLDI1SF SNAKE-PALISADES DAM06-27-2022INFLOW (KAF)1425149795
77SIFI1SNAKE-AB EAGLE ROCK NR IDAHO FALLS06-27-2022DISCHARGE (KAF)1186133589
78AFRI1SNAKE-AMERICAN FALLS RESERVOIR06-27-2022INFLOW (KAF)1074118291
79SNAI1SNAKE-AT BLACKFOOT06-27-2022DISCHARGE (KAF)53267279
80MILI1SNAKE-AT MILNER06-27-2022DISCHARGE (KAF)0380
81WEII1SNAKE-AT WEISER06-27-2022DISCHARGE (KAF)25102452102
82SWAI1SNAKE-BELOW SWAN FALLS06-27-2022DISCHARGE (KAF)1564164895
83BRNI1SNAKE-BROWNLEE DAM06-27-2022INFLOW (KAF)26342559103
84IHDW1SNAKE-ICE HARBOR DAM06-27-2022INFLOW (KAF)81907292112
85JLKW4SNAKE-JACKSON LAKE AT DAM06-27-2022INFLOW (KAF)217206106
86LGSW1SNAKE-LITTLE GOOSE DAM06-27-2022INFLOW (KAF)81457284112
87LGDW1SNAKE-LOWER GRANITE DAM06-27-2022INFLOW (KAF)81697293112
88LMNW1SNAKE-LOWER MONUMENTAL DAM06-27-2022INFLOW (KAF)81847279112
89ALPW4SNAKE-NEAR ALPINE06-27-2022DISCHARGE (KAF)1110115996
90ANAW1SNAKE-NEAR ANATONE06-27-2022DISCHARGE (KAF)52234824108
91BFTI1SNAKE-NEAR BLACKFOOT06-27-2022DISCHARGE (KAF)52064481
92HEII1SNAKE-NEAR HEISE06-27-2022DISCHARGE (KAF)1955218290
93JKSW4SNAKE-NEAR JACKSON06-27-2022DISCHARGE (KAF)94398895
94SHYI1SNAKE-NEAR SHELLEY06-27-2022DISCHARGE (KAF)1027122384
95LLKW1SPOKANE-AT LONGLAKE06-27-2022INFLOW (KAF)667572117
96SPOW1SPOKANE-AT SPOKANE06-27-2022DISCHARGE (KAF)472422112
97SJMI1ST JOE-AT ST MARIES06-27-2022STAGE (FT)MMM
98SATI1ST MARIES-NEAR SANTA06-27-2022DISCHARGE (KAF)3317192
99STRM8ST. REGIS-NEAR ST. REGIS06-27-2022DISCHARGE (KAF)5939149
100TNAW1TEANAWAY-BELOW FORKS06-27-2022DISCHARGE (KAF)179188
101TEAI1TETON-NEAR ST. ANTHONY06-27-2022DISCHARGE (KAF)186182102
102RILW1TIETON-RIMROCK LAKE NEAR RIMROCK06-27-2022INFLOW (KAF)10680133
103PDTO3UMATILLA-AT PENDLETON06-27-2022DISCHARGE (KAF)3913287
104GIBO3UMATILLA-NEAR GIBBON06-27-2022DISCHARGE (KAF)1312108
105UMAO3UMATILLA-NEAR UMATILLA06-27-2022DISCHARGE (KAF)182769
106TCHW1WALLA WALLA-NEAR TOUCHET06-27-2022DISCHARGE (KAF)469521
107WSRI1WEISER-NEAR WEISER06-27-2022DISCHARGE (KAF)5552107
108PESW1WENATCHEE-AT PESHASTIN06-27-2022DISCHARGE (KAF)688378182
109UNDW1WHITE SALMON-NEAR UNDERWOOD06-27-2022DISCHARGE (KAF)191163117
110RIDI1WILLOW CREEK-RIRIE DAM06-27-2022INFLOW (KAF)2638
111EASW1YAKIMA-AT EASTON06-27-2022DISCHARGE (KAF)697592
112KIOW1YAKIMA-AT KIONA06-27-2022DISCHARGE (KAF)459389118
113UMTW1YAKIMA-AT UMTANUM06-27-2022DISCHARGE (KAF)658642103
114KEDW1YAKIMA-KEECHELUS LAKE06-27-2022INFLOW (KAF)4027147
115PARW1YAKIMA-NEAR PARKER06-27-2022DISCHARGE (KAF)155135114